SDM601 UNOO-UNNT

Flight info

Callsign SDM601
Flight time N/A
Altitude 37000
Route RUMOD5C RUMOD A844 BIKMI R234 ABESA B944 GOLIM GOLIM1K
Aircraft A320/M-SDE3FGHIRWY/LB1

Departure

Time 2026-04-30 15:05
Airport Omsk Central Airport (UNOO)

Arrival

Time N/A
Airport Novosibirsk Tolmachevo Airport (UNNT)
Time Latitude Longitude Altitude Speed Heading
2026-04-30 14:41 54.96266 73.31907 309 ft 0 kts 137°
2026-04-30 14:59 54.96262 73.32076 307 ft 12 kts 43°
2026-04-30 15:00 54.96445 73.32089 309 ft 13 kts 258°
2026-04-30 15:00 54.96412 73.31843 310 ft 9 kts 257°
2026-04-30 15:01 54.96355 73.31416 310 ft 20 kts 256°
2026-04-30 15:01 54.96322 73.31174 312 ft 21 kts 257°
2026-04-30 15:01 54.96256 73.30671 314 ft 22 kts 256°
2026-04-30 15:02 54.96220 73.30410 316 ft 22 kts 257°
2026-04-30 15:02 54.96185 73.30141 317 ft 23 kts 257°
2026-04-30 15:03 54.96085 73.29317 321 ft 17 kts 295°
2026-04-30 15:03 54.96167 73.29254 321 ft 0 kts 347°
2026-04-30 15:04 54.96318 73.29191 321 ft 23 kts 347°
2026-04-30 15:04 54.96520 73.29576 318 ft 66 kts 77°
2026-04-30 15:05 54.97081 73.34217 1061 ft 158 kts 81°
2026-04-30 15:06 54.97561 73.38160 2268 ft 169 kts 76°
2026-04-30 15:06 54.98141 73.42656 2868 ft 211 kts 80°
2026-04-30 15:07 54.98681 73.48250 3749 ft 251 kts 82°
2026-04-30 15:07 54.99254 73.54373 5435 ft 261 kts 82°
2026-04-30 15:08 54.99856 73.60703 7071 ft 270 kts 83°
2026-04-30 15:08 55.00811 73.70759 9226 ft 291 kts 83°
2026-04-30 15:09 55.01484 73.77912 10466 ft 312 kts 83°
2026-04-30 15:09 55.02221 73.85898 11132 ft 348 kts 83°
2026-04-30 15:10 55.03004 73.94312 12449 ft 359 kts 83°
2026-04-30 15:11 55.04632 74.11975 14981 ft 378 kts 83°
2026-04-30 15:11 55.05464 74.21137 16152 ft 387 kts 83°
2026-04-30 15:12 55.06564 74.35286 17874 ft 398 kts 88°
2026-04-30 15:13 55.06915 74.45026 18923 ft 406 kts 89°
2026-04-30 15:14 55.07519 74.65024 20967 ft 419 kts 89°
2026-04-30 15:14 55.08005 74.80378 22564 ft 427 kts 89°
2026-04-30 15:16 55.08814 75.06713 24738 ft 442 kts 88°
2026-04-30 15:17 55.09422 75.28335 26106 ft 450 kts 88°
2026-04-30 15:18 55.10142 75.56053 27767 ft 464 kts 88°
2026-04-30 15:19 55.10561 75.73070 28722 ft 471 kts 88°